QPF
0.19 0.21 0.19 0.20 0.21 0.25 0.27 0.27 0.24 0.23 0.24 0.24 0.22 0.23 0.21 0.12 0.11 0.11 0.08 0.08 0.12 0.14 0.17 0.19 0.18 0.20 0.18 0.15 0.13 0.13 0.13 0.13 0.09 0.05 0.03 0.03 0.03 0.02 0.01 0.01 0.00 0.00 0.00
0.24 0.22 0.22 0.19 0.17 0.17 0.16 0.18 0.18 0.20 0.24 0.26 0.23 0.22 0.19 0.13 0.12 0.13 0.09 0.06 0.08 0.11 0.14 0.16 0.16 0.16 0.17 0.16 0.14 0.13 0.12 0.12 0.11 0.07 0.05 0.03 0.03 0.04 0.03 0.02 0.02 0.01 0.01
0.22 0.21 0.17 0.12 0.10 0.10 0.11 0.13 0.16 0.17 0.16 0.16 0.13 0.14 0.12 0.11 0.09 0.09 0.06 0.04 0.03 0.03 0.06 0.08 0.10 0.11 0.12 0.13 0.15 0.15 0.12 0.10 0.09 0.07 0.05 0.03 0.02 0.02 0.03 0.04 0.04 0.03 0.02
0.16 0.14 0.09 0.05 0.04 0.03 0.05 0.08 0.10 0.08 0.08 0.08 0.05 0.04 0.04 0.04 0.03 0.03 0.02 0.01 0.02 0.01 0.01 0.03 0.06 0.08 0.10 0.13 0.16 0.18 0.13 0.09 0.07 0.06 0.06 0.04 0.02 0.01 0.01 0.01 0.04 0.05 0.03
0.09 0.06 0.03 0.01 0.01 0.01 0.01 0.02 0.02 0.02 0.02 0.02 0.01 0.01 0.01 0.02 0.01 0.01 0.00 0.00 0.00 0.01 0.00 0.00 0.02 0.05 0.10 0.14 0.15 0.16 0.12 0.10 0.08 0.07 0.08 0.07 0.05 0.02 0.01 0.00 0.01 0.03 0.03
0.07 0.03 0.02 0.01 0.00 0.00 0.00 0.00 0.00 0.00 0.00 0.00 0.00 0.01 0.00 0.01 0.00 0.00 0.00 0.00 0.00 0.00 0.00 0.00 0.00 0.01 0.04 0.09 0.10 0.12 0.12 0.12 0.12 0.11 0.10 0.10 0.10 0.06 0.02 0.01 0.01 0.01 0.02
0.06 0.03 0.01 0.00 0.00 0.00 0.00 0.00 0.00 0.00 0.00 0.00 0.00 0.00 0.00 0.00 0.00 0.00 0.00 0.00 0.00 0.00 0.00 0.00 0.00 0.00 0.01 0.02 0.04 0.08 0.13 0.17 0.15 0.14 0.12 0.11 0.14 0.12 0.07 0.03 0.02 0.01 0.02
0.05 0.03 0.01 0.00 0.00 0.00 0.00 0.00 0.00 0.00 0.00 0.00 0.00 0.00 0.00 0.00 0.00 0.00 0.00 0.00 0.00 0.00 0.00 0.00 0.00 0.00 0.00 0.01 0.01 0.03 0.09 0.14 0.16 0.15 0.15 0.15 0.15 0.14 0.12 0.10 0.07 0.04 0.03
0.05 0.03 0.01 0.00 0.00 0.00 0.00 0.00 0.00 0.00 0.00 0.00 0.00 0.00 0.00 0.00 0.00 0.00 0.00 0.00 0.00 0.00 0.00 0.00 0.00 0.00 0.00 0.00 0.01 0.02 0.04 0.07 0.13 0.17 0.16 0.15 0.14 0.14 0.15 0.17 0.16 0.11 0.07
0.07 0.05 0.03 0.01 0.00 0.00 0.00 0.00 0.00 0.00 0.00 0.00 0.00 0.00 0.00 0.00 0.00 0.00 0.00 0.00 0.00 0.00 0.00 0.00 0.00 0.00 0.00 0.00 0.01 0.01 0.01 0.02 0.07 0.12 0.14 0.13 0.12 0.12 0.14 0.17 0.22 0.22 0.17
0.12 0.10 0.08 0.05 0.02 0.01 0.00 0.00 0.00 0.00 0.00 0.00 0.00 0.00 0.00 0.00 0.00 0.00 0.00 0.00 0.00 0.00 0.00 0.00 0.00 0.00 0.00 0.00 0.00 0.00 0.01 0.01 0.03 0.06 0.09 0.12 0.15 0.16 0.14 0.14 0.16 0.18 0.17
0.14 0.13 0.12 0.10 0.08 0.04 0.01 0.00 0.00 0.00 0.00 0.00 0.00 0.00 0.00 0.00 0.00 0.00 0.00 0.00 0.00 0.00 0.00 0.00 0.00 0.00 0.00 0.00 0.00 0.00 0.01 0.02 0.03 0.04 0.07 0.09 0.13 0.16 0.17 0.17 0.17 0.16 0.17
0.11 0.12 0.12 0.13 0.12 0.09 0.06 0.03 0.01 0.00 0.00 0.00 0.00 0.00 0.00 0.00 0.00 0.00 0.00 0.00 0.00 0.00 0.00 0.00 0.00 0.00 0.00 0.00 0.00 0.01 0.02 0.03 0.04 0.04 0.06 0.11 0.17 0.20 0.21 0.22 0.22 0.20 0.17
0.05 0.07 0.07 0.09 0.11 0.12 0.11 0.07 0.03 0.01 0.00 0.00 0.00 0.00 0.00 0.00 0.00 0.00 0.00 0.00 0.00 0.00 0.00 0.00 0.00 0.00 0.00 0.00 0.01 0.02 0.03 0.05 0.05 0.06 0.07 0.09 0.15 0.23 0.25 0.25 0.22 0.19 0.16
0.01 0.02 0.03 0.05 0.08 0.10 0.11 0.10 0.08 0.05 0.02 0.01 0.00 0.00 0.00 0.00 0.00 0.00 0.00 0.00 0.00 0.00 0.00 0.00 0.00 0.00 0.00 0.00 0.01 0.02 0.03 0.06 0.07 0.07 0.08 0.09 0.10 0.13 0.17 0.17 0.17 0.15 0.12
0.00 0.01 0.02 0.03 0.04 0.07 0.09 0.09 0.09 0.08 0.05 0.02 0.01 0.01 0.00 0.00 0.00 0.00 0.00 0.00 0.00 0.00 0.00 0.00 0.00 0.00 0.00 0.00 0.01 0.01 0.04 0.07 0.07 0.06 0.08 0.08 0.08 0.08 0.08 0.09 0.08 0.07 0.06
0.00 0.00 0.01 0.02 0.03 0.05 0.07 0.09 0.09 0.10 0.08 0.06 0.04 0.02 0.01 0.01 0.00 0.00 0.00 0.00 0.00 0.00 0.00 0.00 0.00 0.01 0.01 0.00 0.00 0.01 0.03 0.05 0.05 0.05 0.06 0.05 0.04 0.04 0.04 0.03 0.03 0.02 0.02
0.00 0.00 0.00 0.00 0.01 0.03 0.06 0.09 0.11 0.12 0.11 0.10 0.08 0.06 0.03 0.02 0.01 0.01 0.00 0.00 0.00 0.00 0.00 0.00 0.00 0.01 0.01 0.01 0.01 0.01 0.02 0.04 0.04 0.04 0.04 0.04 0.03 0.02 0.01 0.01 0.01 0.01 0.01
0.00 0.00 0.00 0.00 0.00 0.01 0.02 0.04 0.08 0.12 0.14 0.14 0.12 0.10 0.07 0.05 0.02 0.02 0.01 0.00 0.00 0.00 0.00 0.00 0.01 0.02 0.02 0.03 0.02 0.02 0.02 0.02 0.03 0.03 0.03 0.03 0.02 0.01 0.01 0.01 0.00 0.00 0.00
0.00 0.00 0.00 0.00 0.00 0.00 0.00 0.01 0.02 0.05 0.09 0.12 0.14 0.13 0.11 0.08 0.05 0.03 0.02 0.01 0.00 0.00 0.00 0.01 0.01 0.03 0.04 0.05 0.03 0.03 0.03 0.03 0.02 0.02 0.02 0.01 0.01 0.01 0.00 0.00 0.00 0.00 0.00
0.00 0.00 0.00 0.00 0.00 0.00 0.00 0.00 0.00 0.01 0.02 0.05 0.09 0.11 0.13 0.11 0.08 0.05 0.03 0.02 0.01 0.00 0.00 0.01 0.02 0.03 0.05 0.07 0.06 0.03 0.03 0.03 0.03 0.02 0.01 0.00 0.00 0.00 0.00 0.00 0.00 0.00 0.00
0.00 0.00 0.00 0.00 0.00 0.00 0.00 0.00 0.00 0.00 0.00 0.01 0.03 0.06 0.09 0.13 0.10 0.07 0.04 0.02 0.01 0.00 0.00 0.01 0.02 0.03 0.04 0.03 0.03 0.03 0.03 0.02 0.04 0.04 0.01 0.01 0.00 0.00 0.00 0.00 0.00 0.00 0.00
0.01 0.00 0.00 0.00 0.00 0.00 0.00 0.00 0.00 0.00 0.00 0.00 0.01 0.03 0.05 0.07 0.09 0.07 0.05 0.03 0.01 0.00 0.00 0.00 0.01 0.02 0.02 0.02 0.03 0.03 0.03 0.03 0.02 0.03 0.01 0.01 0.01 0.00 0.00 0.00 0.00 0.00 0.00
0.02 0.02 0.01 0.00 0.00 0.00 0.00 0.00 0.00 0.00 0.00 0.00 0.01 0.02 0.03 0.04 0.06 0.07 0.05 0.03 0.01 0.00 0.00 0.00 0.01 0.02 0.03 0.03 0.04 0.06 0.06 0.06 0.06 0.04 0.01 0.01 0.01 0.00 0.00 0.00 0.00 0.00 0.00
0.04 0.04 0.03 0.01 0.00 0.00 0.00 0.00 0.00 0.00 0.00 0.00 0.00 0.02 0.04 0.05 0.06 0.06 0.05 0.03 0.02 0.01 0.00 0.01 0.02 0.04 0.07 0.10 0.09 0.08 0.09 0.08 0.08 0.05 0.02 0.01 0.00 0.00 0.00 0.00 0.00 0.00 0.00
0.07 0.05 0.04 0.02 0.01 0.00 0.00 0.00 0.00 0.00 0.00 0.00 0.00 0.02 0.06 0.07 0.08 0.07 0.05 0.04 0.02 0.01 0.00 0.01 0.04 0.07 0.08 0.11 0.11 0.07 0.06 0.06 0.06 0.04 0.02 0.01 0.00 0.00 0.00 0.00 0.00 0.00 0.00
MSLP
1012.41 1012.53 1012.56 1012.52 1012.44 1012.35 1012.28 1012.26 1012.31 1012.42 1012.58 1012.76 1012.94 1013.10 1013.23 1013.33 1013.39 1013.44 1013.48 1013.52 1013.57 1013.63 1013.71 1013.80 1013.92 1014.06 1014.24 1014.47 1014.74 1015.07 1015.44 1015.85 1016.29 1016.74 1017.19 1017.63 1018.04 1018.43 1018.79 1019.12 1019.42 1019.72 1020.00
1011.70 1011.85 1011.94 1011.96 1011.94 1011.89 1011.87 1011.88 1011.95 1012.06 1012.21 1012.38 1012.55 1012.68 1012.78 1012.85 1012.89 1012.91 1012.93 1012.96 1013.01 1013.08 1013.17 1013.28 1013.40 1013.55 1013.71 1013.91 1014.14 1014.42 1014.75 1015.14 1015.57 1016.03 1016.51 1017.00 1017.47 1017.91 1018.32 1018.70 1019.04 1019.35 1019.66
1010.94 1011.14 1011.29 1011.39 1011.46 1011.51 1011.56 1011.63 1011.73 1011.86 1012.01 1012.16 1012.30 1012.40 1012.46 1012.48 1012.48 1012.45 1012.44 1012.44 1012.47 1012.53 1012.63 1012.74 1012.87 1013.00 1013.15 1013.32 1013.51 1013.74 1014.03 1014.38 1014.79 1015.26 1015.77 1016.29 1016.81 1017.30 1017.76 1018.17 1018.55 1018.89 1019.22
1010.22 1010.46 1010.68 1010.88 1011.05 1011.20 1011.35 1011.49 1011.64 1011.80 1011.95 1012.09 1012.19 1012.25 1012.27 1012.23 1012.17 1012.10 1012.03 1011.99 1011.99 1012.03 1012.11 1012.21 1012.33 1012.45 1012.57 1012.70 1012.86 1013.05 1013.30 1013.61 1014.01 1014.47 1014.99 1015.53 1016.08 1016.61 1017.11 1017.55 1017.96 1018.33 1018.68
1009.61 1009.87 1010.16 1010.44 1010.71 1010.97 1011.21 1011.43 1011.64 1011.83 1011.99 1012.12 1012.19 1012.22 1012.18 1012.10 1011.99 1011.86 1011.74 1011.65 1011.61 1011.61 1011.65 1011.72 1011.81 1011.90 1012.00 1012.10 1012.22 1012.38 1012.59 1012.88 1013.25 1013.70 1014.21 1014.77 1015.33 1015.88 1016.39 1016.86 1017.28 1017.67 1018.04
1009.17 1009.43 1009.75 1010.09 1010.44 1010.79 1011.11 1011.40 1011.66 1011.88 1012.05 1012.17 1012.24 1012.24 1012.18 1012.06 1011.91 1011.74 1011.57 1011.44 1011.34 1011.28 1011.28 1011.30 1011.35 1011.41 1011.47 1011.54 1011.63 1011.76 1011.94 1012.20 1012.55 1012.98 1013.48 1014.02 1014.58 1015.13 1015.64 1016.11 1016.53 1016.93 1017.31
1008.93 1009.16 1009.47 1009.84 1010.23 1010.62 1010.99 1011.33 1011.62 1011.86 1012.05 1012.18 1012.25 1012.25 1012.19 1012.07 1011.91 1011.72 1011.52 1011.34 1011.19 1011.08 1011.02 1010.99 1010.98 1010.99 1011.02 1011.05 1011.11 1011.21 1011.37 1011.60 1011.92 1012.33 1012.80 1013.32 1013.85 1014.38 1014.87 1015.33 1015.74 1016.14 1016.52
1008.89 1009.06 1009.33 1009.67 1010.06 1010.45 1010.83 1011.17 1011.48 1011.73 1011.93 1012.08 1012.17 1012.20 1012.17 1012.08 1011.94 1011.76 1011.55 1011.35 1011.16 1011.00 1010.87 1010.78 1010.71 1010.67 1010.64 1010.63 1010.66 1010.73 1010.86 1011.06 1011.35 1011.73 1012.16 1012.65 1013.15 1013.64 1014.11 1014.54 1014.94 1015.32 1015.70
1009.03 1009.11 1009.30 1009.59 1009.92 1010.27 1010.61 1010.93 1011.21 1011.46 1011.67 1011.83 1011.96 1012.04 1012.07 1012.03 1011.94 1011.79 1011.61 1011.40 1011.19 1010.99 1010.81 1010.65 1010.53 1010.42 1010.34 1010.29 1010.27 1010.31 1010.40 1010.57 1010.83 1011.16 1011.56 1012.00 1012.46 1012.92 1013.36 1013.77 1014.16 1014.53 1014.89
1009.28 1009.28 1009.39 1009.58 1009.82 1010.08 1010.35 1010.60 1010.84 1011.06 1011.26 1011.44 1011.61 1011.75 1011.84 1011.88 1011.86 1011.77 1011.63 1011.44 1011.23 1011.01 1010.79 1010.58 1010.40 1010.23 1010.10 1010.00 1009.94 1009.93 1009.98 1010.11 1010.32 1010.61 1010.96 1011.36 1011.79 1012.22 1012.64 1013.04 1013.42 1013.78 1014.15
1009.60 1009.52 1009.54 1009.63 1009.76 1009.92 1010.09 1010.25 1010.42 1010.58 1010.76 1010.94 1011.14 1011.32 1011.48 1011.60 1011.66 1011.64 1011.56 1011.41 1011.22 1010.99 1010.75 1010.52 1010.29 1010.08 1009.90 1009.75 1009.65 1009.59 1009.60 1009.68 1009.84 1010.08 1010.39 1010.75 1011.15 1011.56 1011.97 1012.37 1012.76 1013.13 1013.50
1009.90 1009.78 1009.72 1009.72 1009.75 1009.79 1009.85 1009.91 1009.99 1010.08 1010.22 1010.38 1010.58 1010.80 1011.01 1011.18 1011.31 1011.37 1011.35 1011.25 1011.10 1010.90 1010.67 1010.43 1010.19 1009.96 1009.75 1009.56 1009.41 1009.31 1009.27 1009.30 1009.41 1009.60 1009.87 1010.20 1010.57 1010.97 1011.39 1011.80 1012.21 1012.60 1012.99
1010.11 1009.97 1009.87 1009.80 1009.75 1009.70 1009.65 1009.61 1009.59 1009.61 1009.68 1009.81 1009.99 1010.21 1010.44 1010.65 1010.83 1010.95 1010.99 1010.96 1010.86 1010.71 1010.52 1010.31 1010.09 1009.86 1009.65 1009.45 1009.27 1009.14 1009.05 1009.03 1009.10 1009.24 1009.46 1009.76 1010.11 1010.51 1010.93 1011.36 1011.80 1012.22 1012.63
1010.17 1010.04 1009.93 1009.82 1009.71 1009.60 1009.47 1009.35 1009.25 1009.19 1009.19 1009.27 1009.40 1009.59 1009.81 1010.04 1010.25 1010.40 1010.50 1010.54 1010.51 1010.43 1010.31 1010.17 1009.99 1009.81 1009.62 1009.43 1009.26 1009.11 1009.00 1008.94 1008.96 1009.06 1009.24 1009.50 1009.84 1010.22 1010.65 1011.10 1011.56 1012.01 1012.44
1010.01 1009.92 1009.83 1009.72 1009.59 1009.45 1009.28 1009.11 1008.95 1008.82 1008.76 1008.77 1008.84 1008.99 1009.18 1009.39 1009.60 1009.78 1009.93 1010.03 1010.08 1010.09 1010.06 1010.00 1009.92 1009.82 1009.69 1009.55 1009.40 1009.26 1009.14 1009.07 1009.05 1009.12 1009.26 1009.49 1009.80 1010.17 1010.59 1011.04 1011.51 1011.97 1012.42
1009.60 1009.56 1009.50 1009.43 1009.33 1009.19 1009.03 1008.84 1008.65 1008.48 1008.37 1008.31 1008.33 1008.41 1008.55 1008.73 1008.92 1009.12 1009.30 1009.46 1009.59 1009.70 1009.78 1009.84 1009.87 1009.87 1009.83 1009.77 1009.68 1009.59 1009.49 1009.43 1009.40 1009.45 1009.56 1009.76 1010.04 1010.38 1010.78 1011.21 1011.67 1012.13 1012.57
1008.93 1008.93 1008.94 1008.93 1008.88 1008.79 1008.66 1008.50 1008.31 1008.13 1007.98 1007.88 1007.84 1007.87 1007.96 1008.09 1008.27 1008.46 1008.67 1008.88 1009.09 1009.29 1009.48 1009.65 1009.80 1009.92 1010.01 1010.05 1010.06 1010.04 1010.01 1009.98 1009.98 1010.02 1010.13 1010.30 1010.54 1010.85 1011.21 1011.61 1012.03 1012.46 1012.88
1008.04 1008.09 1008.15 1008.22 1008.25 1008.24 1008.17 1008.06 1007.90 1007.74 1007.58 1007.45 1007.38 1007.36 1007.40 1007.50 1007.65 1007.83 1008.05 1008.30 1008.56 1008.84 1009.13 1009.41 1009.68 1009.93 1010.14 1010.31 1010.43 1010.52 1010.57 1010.62 1010.68 1010.76 1010.88 1011.05 1011.27 1011.54 1011.85 1012.20 1012.56 1012.94 1013.32
1007.00 1007.09 1007.22 1007.36 1007.48 1007.55 1007.57 1007.52 1007.41 1007.28 1007.14 1007.01 1006.91 1006.87 1006.88 1006.94 1007.06 1007.24 1007.46 1007.72 1008.02 1008.35 1008.71 1009.08 1009.45 1009.80 1010.13 1010.43 1010.68 1010.90 1011.08 1011.23 1011.38 1011.53 1011.70 1011.89 1012.11 1012.35 1012.63 1012.92 1013.23 1013.55 1013.87
1005.92 1006.03 1006.22 1006.43 1006.63 1006.78 1006.88 1006.90 1006.86 1006.77 1006.65 1006.53 1006.44 1006.38 1006.37 1006.42 1006.52 1006.68 1006.89 1007.15 1007.45 1007.80 1008.19 1008.61 1009.04 1009.48 1009.92 1010.33 1010.71 1011.07 1011.39 1011.69 1011.96 1012.22 1012.47 1012.72 1012.96 1013.21 1013.46 1013.72 1013.98 1014.24 1014.51
1004.88 1005.02 1005.24 1005.51 1005.78 1006.00 1006.16 1006.25 1006.26 1006.21 1006.13 1006.04 1005.95 1005.90 1005.89 1005.92 1006.01 1006.14 1006.33 1006.56 1006.85 1007.18 1007.57 1007.99 1008.45 1008.94 1009.45 1009.96 1010.47 1010.97 1011.44 1011.89 1012.31 1012.71 1013.08 1013.42 1013.73 1014.01 1014.28 1014.51 1014.74 1014.96 1015.19
1003.97 1004.12 1004.37 1004.68 1004.99 1005.26 1005.47 1005.60 1005.65 1005.64 1005.60 1005.53 1005.47 1005.43 1005.42 1005.45 1005.52 1005.63 1005.78 1005.97 1006.21 1006.50 1006.85 1007.25 1007.70 1008.21 1008.77 1009.35 1009.96 1010.58 1011.20 1011.81 1012.39 1012.94 1013.45 1013.91 1014.32 1014.67 1014.98 1015.23 1015.46 1015.66 1015.86
1003.22 1003.38 1003.65 1003.97 1004.30 1004.60 1004.83 1004.98 1005.07 1005.09 1005.07 1005.03 1005.00 1004.97 1004.97 1005.00 1005.05 1005.13 1005.24 1005.38 1005.56 1005.79 1006.08 1006.43 1006.86 1007.36 1007.93 1008.57 1009.26 1009.98 1010.73 1011.48 1012.22 1012.92 1013.57 1014.17 1014.69 1015.13 1015.51 1015.82 1016.07 1016.29 1016.49
1002.64 1002.80 1003.07 1003.39 1003.71 1004.01 1004.24 1004.41 1004.51 1004.56 1004.57 1004.56 1004.55 1004.54 1004.55 1004.58 1004.61 1004.66 1004.73 1004.82 1004.94 1005.10 1005.33 1005.63 1006.01 1006.49 1007.07 1007.73 1008.48 1009.28 1010.12 1010.99 1011.85 1012.68 1013.46 1014.18 1014.82 1015.37 1015.83 1016.21 1016.52 1016.78 1017.00
1002.18 1002.33 1002.58 1002.88 1003.19 1003.47 1003.70 1003.87 1003.98 1004.05 1004.08 1004.10 1004.12 1004.13 1004.15 1004.18 1004.20 1004.23 1004.26 1004.30 1004.37 1004.48 1004.66 1004.92 1005.27 1005.74 1006.31 1006.99 1007.76 1008.61 1009.51 1010.45 1011.39 1012.31 1013.19 1014.00 1014.73 1015.38 1015.93 1016.39 1016.77 1017.09 1017.37
1001.78 1001.91 1002.13 1002.40 1002.68 1002.94 1003.16 1003.33 1003.46 1003.55 1003.62 1003.67 1003.71 1003.74 1003.78 1003.80 1003.81 1003.82 1003.82 1003.84 1003.88 1003.97 1004.12 1004.37 1004.72 1005.18 1005.76 1006.44 1007.23 1008.10 1009.02 1009.99 1010.96 1011.91 1012.83 1013.70 1014.49 1015.20 1015.82 1016.36 1016.82 1017.21 1017.55
Thickness
5737 5739 5739 5738 5738 5737 5736 5736 5737 5737 5736 5735 5734 5734 5733 5732 5732 5731 5732 5733 5734 5734 5734 5734 5735 5736 5737 5737 5737 5737 5736 5734 5733 5731 5729 5728 5727 5725 5723 5722 5721 5720 5718
5734 5735 5736 5736 5736 5735 5735 5735 5736 5735 5734 5734 5734 5733 5733 5732 5732 5731 5732 5733 5733 5733 5733 5733 5734 5734 5735 5737 5737 5738 5737 5736 5734 5733 5731 5729 5728 5727 5725 5723 5722 5720 5719
5731 5732 5732 5733 5733 5733 5733 5733 5733 5733 5732 5731 5731 5731 5731 5731 5731 5732 5732 5732 5733 5733 5733 5733 5733 5733 5734 5735 5736 5736 5737 5736 5735 5734 5733 5731 5730 5728 5726 5725 5723 5721 5720
5728 5728 5729 5731 5731 5730 5730 5729 5729 5728 5727 5727 5727 5727 5728 5729 5731 5731 5731 5731 5732 5732 5732 5732 5732 5732 5733 5734 5734 5734 5735 5735 5735 5735 5733 5732 5731 5730 5728 5726 5725 5723 5721
5724 5725 5726 5727 5726 5725 5725 5724 5724 5723 5722 5722 5722 5723 5724 5725 5727 5729 5730 5730 5731 5731 5731 5731 5731 5731 5732 5733 5733 5733 5734 5734 5734 5734 5733 5733 5732 5731 5729 5728 5726 5724 5723
5720 5721 5722 5722 5721 5719 5719 5718 5717 5718 5717 5717 5718 5718 5720 5721 5723 5725 5727 5728 5729 5730 5729 5729 5729 5730 5730 5731 5732 5733 5733 5733 5733 5733 5732 5732 5732 5731 5730 5729 5727 5726 5724
5717 5717 5717 5716 5715 5714 5713 5713 5712 5712 5711 5712 5710 5710 5714 5717 5719 5722 5725 5726 5728 5730 5729 5729 5728 5728 5729 5730 5731 5732 5732 5732 5732 5731 5731 5731 5731 5730 5730 5729 5728 5726 5725
5713 5713 5712 5711 5710 5709 5707 5706 5706 5705 5706 5707 5705 5703 5703 5708 5715 5720 5722 5724 5726 5727 5728 5729 5728 5727 5728 5728 5730 5730 5731 5731 5731 5730 5730 5730 5729 5729 5729 5728 5728 5727 5726
5707 5708 5708 5707 5706 5704 5702 5702 5702 5702 5701 5702 5702 5700 5698 5699 5705 5713 5717 5720 5722 5724 5725 5726 5726 5726 5726 5727 5728 5729 5729 5729 5730 5730 5730 5729 5728 5727 5727 5727 5726 5726 5725
5700 5701 5702 5701 5700 5699 5698 5698 5698 5698 5698 5696 5696 5698 5699 5700 5699 5703 5710 5715 5717 5720 5721 5723 5724 5725 5725 5725 5726 5727 5727 5727 5728 5729 5729 5728 5727 5726 5725 5725 5724 5724 5723
5689 5691 5692 5693 5693 5693 5693 5693 5693 5693 5694 5694 5693 5693 5694 5695 5697 5697 5700 5706 5711 5716 5718 5721 5722 5723 5723 5723 5724 5725 5725 5725 5726 5727 5727 5726 5725 5723 5722 5721 5721 5721 5720
5677 5679 5681 5683 5685 5686 5686 5687 5688 5689 5689 5690 5690 5691 5692 5692 5692 5693 5695 5698 5703 5711 5716 5719 5719 5720 5720 5720 5720 5721 5722 5722 5722 5723 5723 5723 5722 5720 5718 5717 5717 5716 5716
5664 5666 5669 5671 5674 5676 5679 5679 5680 5682 5684 5684 5686 5687 5689 5691 5693 5692 5692 5694 5697 5703 5709 5714 5716 5714 5714 5714 5715 5715 5716 5717 5717 5718 5718 5718 5718 5716 5714 5713 5712 5712 5711
5650 5653 5655 5658 5661 5665 5668 5671 5673 5675 5677 5678 5680 5682 5685 5687 5689 5690 5690 5691 5691 5694 5699 5705 5709 5709 5708 5708 5708 5709 5710 5711 5711 5712 5712 5712 5712 5711 5710 5708 5707 5706 5706
5635 5638 5641 5644 5648 5652 5656 5660 5663 5666 5669 5671 5674 5676 5679 5682 5685 5686 5688 5688 5687 5687 5690 5696 5700 5702 5702 5701 5701 5701 5702 5703 5704 5705 5705 5706 5705 5704 5703 5701 5700 5699 5699
5618 5620 5623 5627 5632 5637 5642 5647 5651 5656 5659 5663 5665 5668 5672 5675 5678 5680 5682 5684 5685 5684 5684 5689 5692 5695 5695 5694 5692 5692 5692 5693 5694 5696 5697 5697 5697 5696 5694 5693 5691 5691 5691
5600 5602 5605 5609 5613 5618 5624 5630 5636 5642 5647 5652 5656 5659 5664 5667 5670 5673 5676 5678 5679 5680 5680 5683 5685 5688 5688 5686 5684 5682 5682 5682 5682 5685 5686 5686 5686 5686 5685 5684 5683 5683 5683
5584 5585 5587 5590 5594 5599 5605 5611 5618 5626 5632 5639 5644 5648 5654 5659 5663 5666 5669 5672 5674 5676 5676 5676 5678 5680 5681 5679 5676 5673 5671 5671 5671 5672 5673 5674 5675 5675 5675 5675 5674 5674 5674
5568 5568 5569 5572 5576 5580 5585 5592 5599 5607 5615 5623 5630 5636 5642 5648 5654 5658 5662 5665 5668 5670 5671 5671 5672 5674 5674 5672 5668 5664 5661 5660 5659 5659 5661 5662 5663 5664 5664 5665 5664 5664 5665
5552 5553 5554 5556 5559 5562 5567 5573 5580 5588 5597 5605 5614 5622 5630 5636 5643 5649 5654 5658 5661 5663 5664 5666 5667 5668 5668 5666 5663 5658 5652 5649 5648 5648 5649 5650 5651 5652 5653 5654 5654 5654 5655
5539 5540 5540 5542 5544 5547 5551 5556 5562 5571 5579 5588 5598 5606 5615 5625 5632 5638 5644 5650 5654 5657 5659 5661 5662 5663 5663 5661 5658 5653 5647 5641 5638 5638 5639 5639 5640 5641 5641 5642 5643 5644 5645
5523 5525 5528 5530 5532 5536 5540 5544 5548 5555 5563 5571 5581 5591 5601 5610 5620 5628 5635 5642 5648 5652 5655 5657 5660 5661 5662 5660 5655 5650 5643 5638 5632 5628 5631 5629 5631 5631 5631 5632 5632 5633 5634
5507 5510 5515 5519 5522 5526 5529 5533 5538 5542 5548 5557 5565 5575 5587 5598 5607 5617 5626 5633 5640 5646 5652 5657 5658 5661 5660 5659 5654 5646 5642 5638 5633 5625 5626 5621 5621 5621 5621 5620 5622 5623 5624
5493 5497 5503 5508 5513 5518 5521 5525 5529 5533 5538 5545 5554 5562 5572 5583 5594 5605 5615 5624 5632 5639 5645 5651 5656 5659 5660 5657 5654 5648 5639 5631 5624 5620 5622 5617 5612 5611 5610 5610 5611 5613 5614
5480 5485 5491 5498 5503 5509 5515 5519 5523 5527 5531 5538 5545 5553 5561 5572 5584 5594 5606 5615 5623 5631 5638 5644 5650 5654 5655 5653 5649 5642 5633 5628 5619 5614 5614 5613 5607 5604 5601 5600 5601 5603 5604
5470 5476 5483 5490 5496 5503 5508 5513 5517 5521 5526 5532 5538 5545 5553 5561 5572 5583 5596 5607 5616 5625 5631 5637 5643 5646 5648 5647 5646 5644 5638 5630 5622 5612 5610 5609 5605 5604 5596 5593 5593 5594 5595